Location: Alessandria
(44.9000°N, 8.6170°E)
Time: 17:00:55
(UTC+02:00)

ISS - Pass Details

Date: 17 May 2021
Orbit: 417 x 422 km, 51.6° (Epoch: 18 June)

Event Time Altitude Azimuth Distance (km) Brightness Sun altitude
Rises 02:03:50 0° 298° (WNW) 2,372 0.3 -25.1°
Reaches altitude 10° 02:06:05 10° 309° (NW) 1,507 -0.6 -25.0°
Maximum altitude 02:09:11 33° 15° (NNE) 732 -2.0 -24.9°
Drops below altitude 10° 02:12:18 10° 82° (E) 1,506 -0.7 -24.7°
Sets 02:14:31 0° 92° (E) 2,370 0.2 -24.7°
